User: anonymous   Login
Location: Unspecified
(0.0000°N, 0.0000°E)
Time: 17:50:30
(UTC+00:00)
Language:

ETS 8 - Orbit

View from above orbital plane
View from above orbital plane
View from above satellite
View from above satellite

Ground track
Ground track

The orbit data is extracted from the following two-line orbital elements,

1 29656U 06059A   15146.24474987 -.00000246  00000-0  00000+0 0  9992
2 29656 004.1885 064.0470 0006452 359.0016 054.2636 01.00273407 30933
Epoch (UTC): 26 May 2015 05:52:26
Eccentricity: 0.0006452
inclination: 4.1885°
perigee height: 35758 km
apogee height: 35813 km
right ascension of ascending node: 64.0470°
argument of perigee: 359.0016°
revolutions per day: 1.00273407
mean anomaly at epoch: 54.2636°
orbit number at epoch: 3093

The dashed part of the orbit path shows where the satellite is in the earth's shadow,  

DLR